DW9104 Weather Reports


Display with metric or nautical units.
time (UTC)temp
F
wind
direction
speed
MPH
gust
MPH
rain 1hr
in
rain 24hr
in
rain mn
in
humidity
%
barometer
mb
20260502160907 62 103 0.0 0.0 0.00 0.00 0.00 63 1012.0
20260502160404 62 103 0.0 1.0 0.00 0.00 0.00 61 1012.0
20260502151404 63 104 0.0 2.0 0.00 0.00 0.00 60 1012.7
20260502150904 63 105 0.0 1.0 0.00 0.00 0.00 60 1012.7
20260502150404 63 221 0.0 2.0 0.00 0.00 0.00 58 1012.8
20260502130405 63 112 0.0 3.0 0.00 0.00 0.00 60 1014.3
20260502122905 64 117 0.0 1.0 0.00 0.00 0.00 61 1014.4
20260502122406 63 122 0.0 3.0 0.00 0.00 0.00 63 1014.4
20260502121905 63 121 1.0 3.0 0.00 0.00 0.00 62 1014.6
20260502121405 63 131 2.0 7.0 0.00 0.00 0.00 60 1014.6
20260502120405 63 114 0.0 2.0 0.00 0.00 0.00 62 1014.9
20260502115905 63 116 1.0 3.0 0.00 0.00 0.00 62 1015.0
20260502113905 63 127 1.0 3.0 0.00 0.00 0.00 62 1014.9
20260502112905 64 96 0.0 1.0 0.00 0.00 0.00 64 1015.0
20260502112405 64 96 0.0 2.0 0.00 0.00 0.00 64 1015.2
20260502111906 64 121 0.0 3.0 0.00 0.00 0.00 64 1015.2
20260502111406 63 113 0.0 1.0 0.00 0.00 0.00 65 1015.3
20260502110905 63 93 0.0 2.0 0.00 0.00 0.00 64 1015.5
20260502105905 62 117 0.0 3.0 0.00 0.00 0.00 66 1015.6
20260502105405 62 111 0.0 2.0 0.00 0.00 0.00 65 1015.7
20260502104906 63 112 2.0 5.0 0.00 0.00 0.00 63 1015.8
20260502104405 63 100 0.0 5.0 0.00 0.00 0.00 66 1015.8
20260502103405 62 88 0.0 3.0 0.00 0.00 0.00 70 1015.9
20260502102905 61 96 1.0 2.0 0.00 0.00 0.00 67 1016.0
20260502102405 62 99 0.0 1.0 0.00 0.00 0.00 65 1015.8
20260502101406 62 88 0.0 3.0 0.00 0.00 0.00 69 1015.8
20260502100905 61 127 0.0 1.0 0.00 0.00 0.00 70 1015.8
20260502100405 61 126 0.0 3.0 0.00 0.00 0.00 71 1016.0
20260502090405 59 113 1.0 2.0 0.00 0.00 0.00 74 1016.8
20260502071405 53 102 0.0 1.0 0.00 0.00 0.00 92 1017.2
20260502070405 51 102 0.0 1.0 0.00 0.00 0.00 97 1017.2
20260502065405 49 102 0.0 0.0 0.00 0.00 0.00 95 1017.2
20260502064905 49 102 0.0 0.0 0.00 0.00 0.00 96 1017.2
20260502064405 49 102 0.0 1.0 0.00 0.00 0.00 96 1017.3
20260502063905 49 102 0.0 1.0 0.00 0.00 0.00 97 1017.2
20260502063405 48 102 0.0 1.0 0.00 0.00 0.00 98 1017.3
20260502062905 48 102 0.0 0.0 0.00 0.00 0.00 98 1017.3
20260502062405 47 102 0.0 1.0 0.00 0.00 0.00 98 1017.3
20260502061905 47 102 0.0 1.0 0.00 0.00 0.00 98 1017.2
20260502060905 47 103 0.0 1.0 0.00 0.00 0.00 98 1017.2
20260502060405 47 105 0.0 1.0 0.00 0.00 0.00 98 1017.1
20260502055905 47 106 0.0 1.0 0.00 0.00 0.00 98 1017.2
20260502055405 47 106 0.0 1.0 0.00 0.00 0.00 98 1017.1
20260502054904 47 106 0.0 0.0 0.00 0.00 0.00 98 1017.2
20260502053905 46 106 0.0 0.0 0.00 0.00 0.00 98 1017.0
20260502052905 46 106 0.0 0.0 0.00 0.00 0.00 98 1017.0
20260502052405 46 106 0.0 1.0 0.00 0.00 0.00 98 1017.0
20260502051905 46 106 0.0 1.0 0.00 0.00 0.00 98 1017.0
20260502051405 46 106 0.0 0.0 0.00 0.00 0.00 98 1017.0
20260502050405 46 106 0.0 1.0 0.00 0.00 0.00 98 1017.1
20260502045905 46 106 0.0 1.0 0.00 0.00 0.00 98 1017.1
20260502044905 46 104 0.0 0.0 0.00 0.00 0.00 98 1017.0
20260502044405 46 104 0.0 1.0 0.00 0.00 0.00 98 1017.0
20260502043405 46 104 0.0 1.0 0.00 0.00 0.00 98 1017.0
20260502042905 46 104 0.0 1.0 0.00 0.00 0.00 98 1017.0
20260502042405 46 104 0.0 1.0 0.00 0.00 0.00 98 1017.0
20260502041905 47 104 0.0 1.0 0.00 0.00 0.00 98 1017.0
20260502041405 47 104 0.0 0.0 0.00 0.00 0.00 98 1017.0
20260502040405 47 104 0.0 1.0 0.00 0.00 0.00 98 1017.1
20260502035905 47 104 0.0 0.0 0.00 0.00 0.00 98 1017.1
20260502035412 47 104 0.0 0.0 0.00 0.00 0.00 98 1017.1
20260502034905 47 104 0.0 1.0 0.00 0.00 0.00 98 1017.1
20260502034405 47 104 0.0 1.0 0.00 0.00 0.00 98 1017.2
20260502033904 47 104 0.0 1.0 0.00 0.00 0.00 98 1017.1
20260502033405 47 103 0.0 0.0 0.00 0.00 0.00 98 1017.1
20260502032904 47 104 0.0 1.0 0.00 0.00 0.00 98 1017.1
20260502032405 47 104 0.0 1.0 0.00 0.00 0.00 98 1017.1
20260502031905 47 104 0.0 1.0 0.00 0.00 0.00 97 1017.2
20260502031404 47 104 0.0 1.0 0.00 0.00 0.00 97 1017.2
20260502030405 48 104 0.0 1.0 0.00 0.00 0.00 97 1017.2
20260502025905 48 104 0.0 0.0 0.00 0.00 0.00 97 1017.2
20260502025405 48 104 0.0 0.0 0.00 0.00 0.00 97 1017.2
20260502024904 48 103 0.0 1.0 0.00 0.00 0.00 97 1017.2
20260502024405 48 103 0.0 0.0 0.00 0.00 0.00 97 1017.2
20260502023905 48 103 0.0 0.0 0.00 0.00 0.00 97 1017.3
20260502023404 49 104 0.0 1.0 0.00 0.00 0.00 97 1017.2
20260502022905 49 103 0.0 0.0 0.00 0.00 0.00 97 1017.2
20260502022405 49 104 0.0 1.0 0.00 0.00 0.00 97 1017.3
20260502021905 49 104 0.0 0.0 0.00 0.00 0.00 96 1017.3
20260502020905 49 103 0.0 1.0 0.00 0.00 0.00 96 1017.5
20260502020405 49 103 0.0 0.0 0.00 0.00 0.00 96 1017.6
20260502015904 49 104 0.0 1.0 0.00 0.00 0.00 96 1017.6
20260502015405 49 104 0.0 1.0 0.00 0.00 0.00 96 1017.6
20260502014405 49 103 0.0 1.0 0.00 0.00 0.00 96 1017.7
20260502013905 49 103 0.0 1.0 0.00 0.00 0.00 96 1017.8
20260502012905 49 103 0.0 1.0 0.00 0.00 0.00 96 1017.8
20260502012405 49 103 0.0 1.0 0.00 0.00 0.00 96 1017.9
20260502011904 49 104 0.0 0.0 0.00 0.00 0.00 95 1017.9
20260502010906 49 103 0.0 0.0 0.00 0.00 0.00 95 1017.9
20260502010404 50 104 0.0 1.0 0.00 0.00 0.00 95 1018.0
20260502005905 50 103 0.0 0.0 0.00 0.00 0.00 94 1018.0
20260502005405 50 104 0.0 0.0 0.00 0.00 0.00 94 1018.0
20260502004405 50 103 0.0 0.0 0.00 0.00 0.00 94 1018.1
20260502003905 50 103 0.0 0.0 0.00 0.00 0.00 93 1018.1
20260502003405 51 103 0.0 0.0 0.00 0.00 0.00 93 1018.1
20260502002905 51 103 0.0 0.0 0.00 0.00 0.00 93 1018.1
20260502002404 51 103 0.0 0.0 0.00 0.00 0.00 93 1018.2
20260502001905 51 103 0.0 1.0 0.00 0.00 0.00 92 1018.2
20260502001404 51 103 0.0 1.0 0.00 0.00 0.00 92 1018.2
20260502000905 52 103 0.0 1.0 0.00 0.00 0.00 92 1018.3
20260502000405 52 103 0.0 1.0 0.00 0.00 0.00 92 1018.3
20260501235905 52 113 0.0 1.0 0.00 0.00 0.00 92 1018.3
20260501235404 52 110 0.0 1.0 0.00 0.00 0.00 93 1018.4
20260501234904 52 110 0.0 2.0 0.00 0.00 0.00 93 1018.4
20260501234404 52 109 0.0 1.0 0.00 0.00 0.00 93 1018.4
20260501233905 52 109 0.0 1.0 0.00 0.00 0.00 93 1018.5
20260501233404 52 109 0.0 1.0 0.00 0.00 0.00 93 1018.5
20260501232905 52 82 0.0 1.0 0.00 0.00 0.00 93 1018.5
20260501232405 52 82 0.0 1.0 0.00 0.00 0.00 93 1018.6
20260501231905 52 82 0.0 0.0 0.00 0.00 0.00 92 1018.5
20260501231405 52 82 0.0 0.0 0.00 0.00 0.00 92 1018.5
20260501230905 52 82 0.0 0.0 0.00 0.00 0.00 92 1018.4
20260501230405 53 82 0.0 1.0 0.00 0.00 0.00 91 1018.4
20260501225905 53 82 0.0 0.0 0.00 0.00 0.00 91 1018.4
20260501225405 53 82 0.0 1.0 0.00 0.00 0.00 91 1018.5
20260501224904 53 82 0.0 1.0 0.00 0.00 0.00 91 1018.5
20260501224404 54 82 0.0 1.0 0.00 0.00 0.00 91 1018.5
20260501223904 54 80 0.0 1.0 0.00 0.00 0.00 91 1018.5
20260501222904 54 103 0.0 1.0 0.00 0.00 0.00 90 1018.5
20260501222412 54 120 0.0 2.0 0.00 0.00 0.00 90 1018.5
20260501221904 54 117 0.0 2.0 0.00 0.00 0.00 90 1018.5
20260501221404 54 109 0.0 1.0 0.00 0.00 0.00 89 1018.5
20260501220405 55 109 0.0 3.0 0.00 0.00 0.00 89 1018.4
20260501215904 55 126 0.0 1.0 0.00 0.00 0.00 89 1018.3
20260501215405 55 95 0.0 2.0 0.00 0.00 0.00 90 1018.3
20260501214904 56 99 0.0 0.0 0.00 0.00 0.00 91 1018.3
20260501214404 56 99 0.0 1.0 0.00 0.00 0.00 91 1018.4
20260501213905 56 48 0.0 1.0 0.00 0.00 0.00 92 1018.4
20260501213404 56 130 0.0 1.0 0.00 0.00 0.00 92 1018.4
20260501212905 56 124 0.0 1.0 0.00 0.00 0.00 92 1018.4
20260501212405 56 127 0.0 2.0 0.00 0.00 0.00 93 1018.4
20260501211904 56 120 0.0 1.0 0.00 0.00 0.00 93 1018.4
20260501210905 56 120 0.0 1.0 0.00 0.00 0.00 93 1018.4
20260501210405 56 120 0.0 2.0 0.00 0.00 0.00 93 1018.3
20260501205915 56 120 0.0 0.0 0.00 0.00 0.00 93 1018.4
20260501205415 56 120 0.0 1.0 0.00 0.00 0.00 93 1018.4
20260501204915 56 120 0.0 0.0 0.00 0.00 0.00 93 1018.3
20260501204404 56 120 0.0 0.0 0.00 0.00 0.00 93 1018.3
20260501203916 56 120 0.0 0.0 0.00 0.00 0.00 93 1018.3
20260501203405 56 120 0.0 0.0 0.00 0.00 0.00 93 1018.4
20260501202905 56 120 0.0 1.0 0.00 0.00 0.00 93 1018.4
20260501202404 56 120 0.0 1.0 0.00 0.00 0.00 93 1018.4
20260501201905 56 122 0.0 1.0 0.00 0.00 0.00 93 1018.4
20260501200904 56 122 0.0 1.0 0.00 0.00 0.00 92 1018.4
20260501200404 56 122 0.0 1.0 0.00 0.00 0.00 92 1018.4
20260501195905 56 122 0.0 1.0 0.00 0.00 0.00 92 1018.4
20260501195405 56 122 0.0 1.0 0.00 0.00 0.00 92 1018.4
20260501194905 56 122 0.0 1.0 0.00 0.00 0.00 92 1018.3
20260501194405 56 122 0.0 0.0 0.00 0.00 0.00 92 1018.3
20260501193904 56 122 0.0 1.0 0.00 0.00 0.00 92 1018.2
20260501193404 56 122 0.0 0.0 0.00 0.00 0.00 91 1018.3
20260501192904 56 122 0.0 1.0 0.00 0.00 0.00 91 1018.3
20260501192404 56 122 0.0 1.0 0.00 0.00 0.00 91 1018.3
20260501191904 56 122 0.0 1.0 0.00 0.00 0.00 91 1018.3
20260501191404 56 122 0.0 0.0 0.00 0.00 0.00 91 1018.3
20260501190904 56 122 0.0 1.0 0.00 0.00 0.00 91 1018.3
20260501190404 56 122 0.0 1.0 0.00 0.00 0.00 91 1018.2
20260501185905 56 122 0.0 1.0 0.00 0.00 0.00 90 1018.1
20260501185405 56 122 0.0 2.0 0.00 0.00 0.00 90 1018.2
20260501184905 57 113 0.0 2.0 0.00 0.00 0.00 90 1018.2
20260501184404 57 113 0.0 1.0 0.00 0.00 0.00 89 1018.1
20260501183905 57 113 0.0 1.0 0.00 0.00 0.00 88 1018.1
20260501183404 57 113 0.0 3.0 0.00 0.00 0.00 87 1018.1
20260501182904 57 134 0.0 2.0 0.00 0.00 0.00 87 1018.1
20260501182405 58 124 0.0 2.0 0.00 0.00 0.00 87 1018.0
20260501181905 58 98 0.0 3.0 0.00 0.00 0.00 87 1018.0
20260501181404 59 102 0.0 3.0 0.00 0.00 0.00 86 1018.0
20260501180404 59 117 1.0 3.0 0.00 0.00 0.00 85 1017.9
20260501175904 59 118 0.0 3.0 0.00 0.00 0.00 85 1017.8
20260501175404 59 108 1.0 3.0 0.00 0.00 0.00 85 1017.8
20260501174905 59 85 1.0 6.0 0.00 0.00 0.00 85 1017.8
20260501174404 59 118 0.0 3.0 0.00 0.00 0.00 85 1017.7
20260501173404 59 115 0.0 3.0 0.00 0.00 0.00 84 1017.6
20260501172904 60 116 0.0 6.0 0.00 0.00 0.00 84 1017.7
20260501172404 60 94 0.0 3.0 0.00 0.00 0.00 83 1017.7
20260501171904 60 99 1.0 5.0 0.00 0.00 0.00 82 1017.7
20260501171404 60 103 1.0 3.0 0.00 0.00 0.00 82 1017.7
20260501170904 60 128 0.0 3.0 0.00 0.00 0.00 81 1017.7
20260501170404 60 105 0.0 3.0 0.00 0.00 0.00 80 1017.6
20260501165904 61 110 1.0 5.0 0.00 0.00 0.00 79 1017.6
20260501165404 61 94 1.0 6.0 0.00 0.00 0.00 78 1017.6
20260501164904 61 116 1.0 6.0 0.00 0.00 0.00 77 1017.6
20260501164404 61 127 1.0 5.0 0.00 0.00 0.00 76 1017.7
20260501163904 62 125 2.0 7.0 0.00 0.00 0.00 74 1017.7
20260501163404 63 136 2.0 10.0 0.00 0.00 0.00 72 1017.7
20260501162904 63 125 1.0 7.0 0.00 0.00 0.00 71 1017.7
20260501161905 64 125 1.0 8.0 0.00 0.00 0.00 68 1017.7